Location: Unspecified
(0.0000°N, 0.0000°E)
Time: 19:33:20
(UTC+00:00)

Vanguard 1 Rocket - Pass Details

Date: 21 April 2026
Orbit: 655 x 4212 km, 34.3° (Epoch: 17 May)

Event Time Altitude Azimuth Distance (km) Brightness Sun altitude
Rises 02:17:17 0° 316° (NW) 7,926 12.0 -53.7°
Reaches altitude 10° 02:24:48 10° 327° (NNW) 6,373 11.5 -51.9°
Maximum altitude 02:39:11 28° 18° (NNE) 3,677 10.5 -48.5°
Drops below altitude 10° 02:47:55 10° 73° (ENE) 3,837 11.1 -46.4°
Sets 02:50:59 0° 86° (E) 4,418 11.6 -45.7°
